Overview Statistics Trail Chart Weather Telemetry Raw packets
 

This is the latest recevied weather packets stored in our database for station/object WW6Q. If no packets are shown the sender has not sent any weather packets the latest 10 day(s).

<< 1 2 3 4 5 6 7 >>
Time Temp. Humidity Pressure Rain* Wind** Luminosity Snow
1788617371 22.22° C 91% 1014.1 hPa 0 mm - 170 W/m² -
1788617065 22.22° C 90% 1014.1 hPa 0 mm - 175 W/m² -
1788616764 21.67° C 92% 1014 hPa 0 mm - 221 W/m² -
1788616460 21.67° C 93% 1014.1 hPa 0 mm - 174 W/m² -
1788616155 21.11° C 95% 1014 hPa 0 mm - 209 W/m² -
1788615854 21.11° C 95% 1014 hPa 0 mm - 173 W/m² -
1788615549 21.11° C 94% 1013.6 hPa 0 mm - 147 W/m² -
1788615243 21.11° C 95% 1014 hPa 0 mm - 159 W/m² -
1788614943 21.11° C 95% 1014 hPa 0 mm - 156 W/m² -
1788614639 21.11° C 95% 1014 hPa 0 mm - 119 W/m² -
1788614338 21.11° C 95% 1014.1 hPa 0 mm - 85 W/m² -
1788614034 21.11° C 96% 1014 hPa 0 mm - 195 W/m² -
1788613729 21.11° C 96% 1013.7 hPa 0 mm - 213 W/m² -
1788613428 21.11° C 96% 1014 hPa 0 mm - 131 W/m² -
1788613123 21.11° C 96% 1013.7 hPa 0 mm - 121 W/m² -
1788612818 21.11° C 97% 1013.6 hPa 0 mm - 93 W/m² -
1788612514 20.56° C 96% 1013.7 hPa 0 mm - 116 W/m² -
1788612211 21.11° C 95% 1013.6 hPa 0 mm - 94 W/m² -
1788611910 20.56° C 97% 1013.6 hPa 0 mm - 102 W/m² -
1788611607 20.56° C 98% 1013.7 hPa 0 mm - 85 W/m² -
1788611307 20.56° C 97% 1013.5 hPa 0 mm - 101 W/m² -
1788611006 21.11° C 96% 1013.4 hPa 0 mm - 59 W/m² -
1788610702 21.11° C 97% 1013.4 hPa 0 mm - 42 W/m² -
1788610399 21.11° C 97% 1013.1 hPa 0 mm - 44 W/m² -
1788610097 20.56° C 99% 1013.4 hPa 0 mm - 38 W/m² -

* Rain latest hour (hover to see other rain measurements)
** Current wind speed in m/s (hover to see current wind gust speed)